This demonstration page uses our WeatherBlox Daily Observations layout. Learn more.

Left ArrowRight Arrow

36.19886, -115.1175

Hourly Observations for February 26, 2022

Temp ( °F °C ) Dew Point ( °F °C ) Humidity (%) Winds ( mph kmh ) Pressure ( in mb ) Visibility ( mi km ) Precip ( " mm )
12:53 am 00:53 Clear 39 3.9 12 -11.1 33 33 W 5 7 30.39 1029 10 16 0.00 0.00
1:53 am 01:53 Clear 40 4.4 12 -11.1 32 32 N 5 7 30.39 1029 10 16 0.00 0.00
2:53 am 02:53 Clear 41 5 11 -11.7 29 29 N 8 13 30.39 1029 10 16 0.00 0.00
3:53 am 03:53 Clear 40 4.4 10 -12.2 29 29 NW 8 13 30.40 1030 10 16 0.00 0.00
4:53 am 04:53 Clear 36 2.2 12 -11.1 37 37 Calm 30.44 1031 10 16 0.00 0.00
5:53 am 05:53 Clear 39 3.9 9 -12.8 29 29 NNW 9 15 30.45 1031 10 16 0.00 0.00
6:53 am 06:53 Sunny 40 4.4 9 -12.8 28 28 NNW 8 13 30.48 1032 10 16 0.00 0.00
7:53 am 07:53 Sunny 42 5.6 9 -12.8 25 25 NNE 9 15 30.51 1033 10 16 0.00 0.00
8:53 am 08:53 Sunny 44 6.7 9 -12.8 24 24 E 6 9 30.52 1034 10 16 0.00 0.00
9:53 am 09:53 Sunny 46 7.8 5 -15 18 18 E 10 17 30.51 1033 10 16 0.00 0.00
10:53 am 10:53 Sunny 48 8.9 4 -15.6 16 16 NW 3 6 30.52 1034 10 16 0.00 0.00
11:53 am 11:53 Sunny 49 9.4 5 -15 16 16 SSW 6 9 30.49 1033 10 16 0.00 0.00
12:53 pm 12:53 Sunny 52 11.1 4 -15.6 14 14 SE 5 7 30.46 1032 10 16 0.00 0.00
1:53 pm 13:53 Sunny 55 12.8 4 -15.6 12 12 Calm 30.45 1031 10 16 0.00 0.00
2:53 pm 14:53 Sunny 56 13.3 5 -15 13 13 Calm 30.44 1031 10 16 0.00 0.00
3:53 pm 15:53 Sunny 57 13.9 4 -15.6 11 11 E 6 9 30.43 1030 10 16 0.00 0.00
4:53 pm 16:53 Sunny 56 13.3 0 -17.8 10 10 E 3 6 30.43 1031 10 16 0.00 0.00
5:53 pm 17:53 Clear 54 12.2 0 -17.8 11 11 ESE 5 7 30.42 1030 10 16 0.00 0.00
6:53 pm 18:53 Clear 53 11.7 1 -17.2 12 12 Calm 30.44 1031 10 16 0.00 0.00
7:53 pm 19:53 Clear 49 9.4 4 -15.6 16 16 W 5 7 30.45 1031 10 16 0.00 0.00
8:53 pm 20:53 Clear 46 7.8 7 -13.9 20 20 W 5 7 30.47 1032 10 16 0.00 0.00
9:53 pm 21:53 Clear 43 6.1 8 -13.3 24 24 NW 5 7 30.48 1032 10 16 0.00 0.00
10:53 pm 22:53 Clear 43 6.1 8 -13.3 24 24 NW 5 7 30.47 1032 10 16 0.00 0.00
11:53 pm 23:53 Clear 41 5 6 -14.4 23 23 W 5 7 30.48 1032 10 16 0.00 0.00

Powered by AerisWeather